Iridium 35 - Orbit

View from above orbital plane
View from above orbital plane
View from above satellite
View from above satellite

Ground track
Ground track

The orbit data is extracted from the following two-line orbital elements,

1 24966U 97056B   13142.36801959  .00000063  00000-0  15497-4 0  3797
2 24966 086.3991 220.1147 0002332 111.3214 248.8231 14.34213732819427
Epoch (UTC): 22 May 2013 08:49:56
Eccentricity: 0.0002332
inclination: 86.3991°
perigee height: 776 km
apogee height: 779 km
right ascension of ascending node: 220.1147°
argument of perigee: 111.3214°
revolutions per day: 14.34213732
mean anomaly at epoch: 248.8231°
orbit number at epoch: 81942

The dashed part of the orbit path shows where the satellite is in the earth's shadow,  

Developed and maintained by Chris Peat, Heavens-Above GmbH. Please read the updated FAQ before sending e-mail. Imprint. DLR